Regional Weather Roundup
Issued by NWS

Home | Current Version | Previous Version | Text Only | Print | Product List | Glossary Off
Versions: 1 2 3 4 5 6 7 8 9 10 11 12 13 14 15 16 17 18 19 20 21 22 23 24 25 26 27 28 29 30 31 32 33 34 35 36 37 38 39 40 41 42 43 44 45 46 47 48 49 50

000
ASUS43 KMPX 222110
RWRMN
WEATHER ROUNDUP FOR MINNESOTA
NATIONAL WEATHER SERVICE TWIN CITIES/CHANHASSEN MN
400 PM CDT TUE JUL 22 2014


NOTE: "FAIR" INDICATES FEW OR NO CLOUDS BELOW 12,000 FEET WITH NO
SIGNIFICANT WEATHER AND/OR OBSTRUCTIONS TO VISIBILITY. N/A MEANS
CURRENT SKY AND/OR WEATHER CONDITIONS ARE NOT AVAILABLE.

MNZ060>063-068>070-222200-
   Twin Cities Metro

CITY           SKY/WX    TMP DP  RH WIND       PRES   REMARKS
TWIN CITIES    MOSUNNY   84  60  44 NW15G22   30.03S
ST PAUL        MOSUNNY   82  62  50 NW15      30.03R
CRYSTAL        MOSUNNY   84  59  42 NW12      30.03R
BLAINE         MOSUNNY   82  63  51 NW12      30.04R
LAKEVILLE      PTSUNNY   81  64  57 W5G18     30.04R
EDEN PRAIRIE   MOSUNNY   82  62  50 N7        30.04R
SOUTH ST PAUL  SUNNY     82  60  48 N9        30.03R
LAKE ELMO      PTSUNNY   79  64  61 NW9       30.04F
$$
MNZ001>005-007-008-013>017-022>024-027-028-222200-
   Northwest Minnesota

CITY           SKY/WX    TMP DP  RH WIND       PRES   REMARKS
BEMIDJI        SUNNY     75  52  45 N14G28    30.13R
HALLOCK        SUNNY     75  54  46 NW14G20   30.16S
ROSEAU         MOSUNNY   77  57  50 NW13      30.14R
WARROAD        MOSUNNY   73  54  49 NW12      30.13R
THIEF RVR FALL MOSUNNY   73  54  49 NW17      30.16R
CROOKSTON      SUNNY     75  57  53 N16       30.17S
FOSSTON        SUNNY     73  55  53 NW14G22   30.16S
DETROIT LAKES  SUNNY     75  55  50 N18G25    30.16S
MOORHEAD       SUNNY     75  61  60 N16G22    30.16S
PARK RAPIDS    SUNNY     77  47  34 N18G26    30.12R
$$
MNZ006-009>011-018-025>026-222200-
   North Central Minnesota

CITY           SKY/WX    TMP DP  RH WIND       PRES   REMARKS
BAUDETTE       SUNNY     75  50  41 NW10      30.13R
FLAG ISLAND    MOSUNNY   73  50  43 NW15      30.11R
INTL FALLS     MOSUNNY   75  52  44 NW15G23   30.08R
WASKISH        SUNNY     75  55  50 NW7G16    30.12R
BIG FORK       MOSUNNY   75  54  46 N8        30.09R
LONGVILLE      SUNNY     75  55  50 NW8G16    30.11R
GRAND RAPIDS   MOSUNNY   75  52  43 N16G23    30.08R
CRANE LAKE     SUNNY     72  54  53 NW10G18   30.08R
ORR            SUNNY     73  52  46 NW10      30.05R
COOK           PTSUNNY   73  55  53 N5G17     30.07R
$$
MNZ012-019>021-037-222200-
   Northeast Minnesota

CITY           SKY/WX    TMP DP  RH WIND       PRES   REMARKS
DULUTH         MOSUNNY   77  56  48 N17G23    30.03R
ELY            MOSUNNY   72  54  53 NW8G20    30.06R
HIBBING        MOSUNNY   78  54  43 N16G26    30.06R
DULUTH HARBOR  SUNNY     77  57  50 N13       30.01R
TWO HARBORS    MOSUNNY   75  57  53 N10G17    30.01R
SILVER BAY     SUNNY     73  61  64 N9G16     30.01R
GRAND MARAIS     N/A     77  58  51 N9        29.97R
G MARAIS ARPRT SUNNY     70  54  56 NW14G23   30.02R
$$
MNZ029>031-032-039>041-046>048-054>057-064-222200-
   West Central Minnesota

CITY           SKY/WX    TMP DP  RH WIND       PRES   REMARKS
FERGUS FALLS   MOSUNNY   75  52  43 N15G22    30.13S
WHEATON        MOSUNNY   75  57  53 N12       30.17R
MORRIS         MOSUNNY   77  59  53 N15G22    30.14R
ALEXANDRIA     PTSUNNY   77  54  44 N13       30.14R
ELBOW LAKE     FAIR      75  58  55 N15       30.14R
WADENA         MOSUNNY   75  54  46 NW17G23   30.12R
GLENWOOD       MOSUNNY   79  55  44 NW15      30.14R
APPLETON       MOSUNNY   82  48  30 N16       30.13R
BENSON         MOSUNNY   79  55  44 NE13      30.13R
ORTONVILLE     SUNNY     79  55  44 N15       30.15R
MADISON        MOSUNNY   81  57  44 N15G21    30.15R
WILLMAR        FAIR      82  52  34 N15G21    30.13R
$$
MNZ033>034-036-042>043-049>051-058-059-222200-
   Central Minnesota

CITY           SKY/WX    TMP DP  RH WIND       PRES   REMARKS
ST CLOUD       MOSUNNY   83  52  34 NW9G22    30.07R
SAUK CENTRE    FAIR      77  55  46 NW13G18   30.12R
PAYNESVILLE    HVY RAIN  79  52  39 W15G21    30.11R
AITKIN         SUNNY     79  57  47 NW10      30.06S
PINE RIVER     MOSUNNY   77  55  47 N15G21    30.12R
BRAINERD       MOSUNNY   77  52  41 N13G24    30.09R
STAPLES        PTSUNNY   79  48  34 N14G24    30.11R
LONG PRAIRIE   FAIR      77  54  44 NW14      30.12R
LITTLE FALLS   PTSUNNY   77  52  41 N10G17    30.09S
LITCHFIELD     SUNNY     82  55  39 NW12      30.09R
BUFFALO        SUNNY     82  57  43 NW9       30.07R
MAPLE LAKE     SUNNY     82  58  44 N9        30.07S
$$
MNZ037-044-045-052-053-222200-
   East Central Minnesota

CITY           SKY/WX    TMP DP  RH WIND       PRES   REMARKS
PRINCETON      MOSUNNY   82  55  39 NW10G16   30.06R
MORA           SUNNY     75  55  50 NW14      30.07R
CAMBRIDGE      SUNNY     82  61  47 NW9G17    30.03S
RUSH CITY      MOSUNNY   79  60  53 N8        30.04S
MOOSE LAKE     MOSUNNY   77  55  47 N7        30.03R
HINCKLEY       FAIR      79  61  53 N12       30.04R
CLOQUET        MOSUNNY   79  54  41 NW12G23   30.04R
MCGREGOR       SUNNY     79  55  44 NW16      30.07R
$$
MNZ071>073-080-081-089-090-097-098-222200-
   Southwest Minnesota

CITY           SKY/WX    TMP DP  RH WIND       PRES   REMARKS
MONTEVIDEO     MOSUNNY   81  55  41 NE14G21     N/A
GRANITE FALLS  SUNNY     79  58  48 NW12G18   30.14R
CANBY          MOSUNNY   80  56  42 N10       30.17R
MARSHALL       MOSUNNY   79  57  47 N17       30.13R
REDWOOD FALLS  SUNNY     84  56  38 NW13G20   30.10R
OLIVIA         SUNNY     81  52  36 N12G22    30.11R
PIPESTONE      SUNNY     79  57  47 N8G17     30.18R
WINDOM         SUNNY     82  59  44 N14       30.13R
WORTHINGTON    SUNNY     79  61  53 N10       30.17R
JACKSON        MOSUNNY   81  61  50 N8        30.13S
TRACY          MOSUNNY   80  59  49 N13G18    30.14S
SLAYTON        MOSUNNY   79  56  44 N6G20     30.16S
$$
MNZ065>067-074>077-082>085-091>093-222200-
   South Central Minnesota

CITY           SKY/WX    TMP DP  RH WIND       PRES   REMARKS
MANKATO        PTSUNNY   82  63  51 NW15      30.06R
NEW ULM        SUNNY     82  61  47 NW10      30.08R
ST JAMES       MOSUNNY   82  61  47 NW13G18   30.10R
FAIRMONT       SUNNY     82  63  51 NW12      30.10R
GLENCOE        SUNNY     83  54  37 NW9       30.07R
FARIBAULT      MOSUNNY   84  57  39 NW12      30.05S
OWATONNA       MOSUNNY   82  63  51 NW15      30.06R
WASECA         MOSUNNY   79  59  50 W9        30.08R
ALBERT LEA     MOSUNNY   82  64  54 NW8       30.06R
$$
MNZ078>079-086>088-094>096-222200-
   Southeast Minnesota

CITY           SKY/WX    TMP DP  RH WIND       PRES   REMARKS
ROCHESTER      SUNNY     82  66  58 NW9       30.04F
RED WING       MOSUNNY   82  63  51 N7        30.01S
STANTON        MOSUNNY   81  63  54 N7        30.03R
DODGE CENTER   SUNNY     81  66  61 NW12      30.05S
WINONA         MOSUNNY   86  64  48 W10G17    29.99F
AUSTIN         MOSUNNY   82  63  51 NW13      30.05R
PRESTON        SUNNY     81  72  74 NW12      30.04S
$$
ABBREVIATIONS USED IN REMARKS
   TC - TEMPERATURES IN CELSIUS
  WCI - WIND CHILL INDEX
   HX - HEAT INDEX
  VSB - VISIBILITY
$$



USA.gov is the U.S. government's official web portal to all federal, state and local government web resources and services.